Location: Arrodets-la-Barthe
(43.0306°N, 0.2829°E)
Time: 04:01:03
(UTC+00:00)

Cosmos 2344 - Pass Details

Date: 02 June 2022
Orbit: 1228 x 3015 km, 63.3° (Epoch: 03 July)

Event Time Altitude Azimuth Distance (km) Brightness Sun altitude
Rises 21:29:49 0° 259° (W) 4,208 6.7 -16.4°
Reaches altitude 10° 21:33:02 10° 271° (W) 3,194 6.2 -16.8°
Maximum altitude 21:39:17 29° 330° (NNW) 2,142 5.6 -17.4°
Drops below altitude 10° 21:46:03 10° 29° (NNE) 3,470 6.2 -18.1°
Sets 21:49:45 0° 41° (NE) 4,640 6.8 -18.4°
